Simultaneous Nadir Overpasses (SNOs) Predictions

Prediction of SNOs between LANDSAT-8 and METOP-A Satellite Orbit:

Table of predicted SNOs for the next 14.0 days since TLE Epoch: 11/17/2016
Index Date (LANDSAT-8) Time (LANDSAT-8) Lat,Lon (LANDSAT-8) SZA (LANDSAT-8 ) Date (METOP-A) Time (METOP-A) Lat,Lon (METOP-A) SZA (METOP-A ) Distance(km) Time Diff (sec)
1 11/18/2016 22:40:16 -81.12, 59.77 77.09 11/18/2016 22:39:16 -81.12, 59.88 77.10 1.88 60
2 11/18/2016 23:29:41 81.15,-132.11 102.99 11/18/2016 23:29:55 81.14,-132.22 102.98 2.07 14
3 11/21/2016 18:14:30 -81.13, 126.36 76.46 11/21/2016 18:13:37 -81.12, 126.21 76.51 2.63 53
4 11/21/2016 19:03:56 81.13, -65.92 103.56 11/21/2016 19:04:16 81.14, -65.92 103.57 0.37 20
5 11/24/2016 13:48:46 -81.11,-167.46 75.95 11/24/2016 13:47:59 -81.12,-167.47 75.96 0.50 47
6
